Regional Weather Roundup
Issued by NWS

Home | Current Version | Previous Version | Graphics & Text | Print | Product List | Glossary On
Versions: 1 2 3 4 5 6 7 8 9 10 11 12 13 14 15 16 17 18 19 20 21 22 23 24 25 26 27 28 29 30 31 32 33 34 35 36 37 38 39 40 41 42 43 44 45 46 47 48 49 50
000
ASUS44 KMEG 220710
RWRTN
TENNESSEE HOURLY STATE WEATHER ROUNDUP
NATIONAL WEATHER SERVICE MEMPHIS TN
100 AM CST MON DEC 22 2014

TNZ002-004-019-021-049-052-054-088>092-220800-
WEST TENNESSEE

CITY           SKY/WX    TMP DP  RH WIND       PRES   REMARKS
MEMPHIS INTL   CLOUDY    48  42  80 SE13      29.89F
NWS MEMPHIS      N/A     46 N/A N/A MISG        N/A
JACKSON        CLOUDY    44  40  85 SE5       29.92F
DYERSBURG      CLOUDY    43  30  61 SE6       29.94F
UNION CITY     CLOUDY    41  37  87 S5        29.92F
PARIS          CLOUDY    39  34  81 SE7       29.94F WCI  34
HUNTINGDON     CLOUDY    38  35  89 SE5       29.94F WCI  34
LEXINGTON      CLOUDY    43  39  87 SE3       29.94F
SAVANNAH       PTCLDY    43  43 100 S5        29.95F
$$

TNZ008-025-027-028-033-062-065-066-220800-
NORTH MIDDLE TENNESSEE

CITY           SKY/WX    TMP DP  RH WIND       PRES   REMARKS
NASHVILLE      PTCLDY    42  39  89 S9        30.00F
CLARKSVILLE    CLOUDY    37  31  78 CALM      29.97F
SMYRNA         CLOUDY    37  36  96 CALM      30.01F
COOKEVILLE     CLOUDY    46  43  87 S5        30.01F
CROSSVILLE     CLOUDY    45  38  76 SE3       30.03F
$$

TNZ061-075-076-078-094-096-097-220800-
SOUTH MIDDLE TENNESSEE

CITY           SKY/WX    TMP DP  RH WIND       PRES   REMARKS
FAYETTEVILLE   CLOUDY    46  45  93 MISG      29.99S
TULLAHOMA      CLOUDY    46  43  87 SE8       30.00S
WINCHESTER     CLOUDY    46  43  87 SE8       30.00F
MCMINNVILLE    CLOUDY    48  46  93 CALM      30.01F
COLUMBIA       CLOUDY   N/A N/A N/A SE5       29.96F
SHELBYVILLE    CLOUDY    48  45  87 SE7       30.00F
$$

TNZ017-018-042-046-047-220800-
NORTHEAST TENNESSEE

CITY           SKY/WX    TMP DP  RH WIND       PRES   REMARKS
TRI CITIES     MOCLDY    36  33  89 CALM      30.09F
ELIZABETHTON   CLOUDY    41  36  81 E7        30.09S
$$

TNZ012-013-036-069-073-074-220800-
CENTRAL EAST TENNESSEE

CITY           SKY/WX    TMP DP  RH WIND       PRES   REMARKS
KNOXVILLE      CLOUDY    44  36  73 N3        30.05F
OAK RIDGE      CLOUDY    45  37  73 CALM      30.07F
GATLINBURG     CLOUDY    37  36  93 CALM      30.05F
MORRISTOWN     CLOUDY    41  37  87 CALM      30.06S
$$

TNZ083-085-099-220800-
SOUTHEAST TENNESSEE

CITY           SKY/WX    TMP DP  RH WIND       PRES   REMARKS
CHATTANOOGA    CLOUDY    46  40  79 CALM      30.05F
$$

SKY/WX REPORTED AS FAIR MEANS FEW OR NO CLOUDS BELOW
12 THOUSAND FEET.




USA.gov is the U.S. government's official web portal to all federal, state and local government web resources and services.